STARLINK-32777, 62525

Orbit data source: Space-Track

STARLINK-32777, 62525 is a payload satellite owned by SpaceX/Seattle (US) in LEO that was launched on Wed, 08 Jan 2025 UTC via an FALCON 9 launch vehicle from the Air Force Eastern Test Range (AFETR). Payload-class satellites include a variety of spacecraft equipped with specific instruments for various scientific and technological missions. These include communications satellites like Starlink; space stations such as the ISS; scientific satellites like the Hubble; Earth observation satellites from companies like Planet Labs, Umbra, and HawkEye 360; GPS; miniature CubeSats for education and research; and military/defense satellites.

Loading next visibility...
Identifier
62525, 2025-004Q
Orbit
LEO
Last TLE update
16 hours ago
Origin
Manufacturer
SpaceX/Seattle
Mission
Operational Commercial Communications
Bus & Motor
STARLINK V2M, Unknown motor
Mass
730 kg wet, ~700 kg dry
Launch date (UTC)
2025-01-08 (6 months ago)
Launch vehicle
FALCON 9
Launch site
Air Force Eastern Test Range (AFETR)
Object type
Payload
Rocket body
Debris
Shape & HBR
Box + 2 Pan, 29 m
Radar Cross Section
33.884 m², Large (>1 m²)

Expand to show TLE details & history

TLE from 16 hours ago
0 STARLINK-32777
1 62525U 25004Q   25181.74959170  .00016681  00000-0  61431-3 0  9990
2 62525  42.9960 203.0398 0000705 298.0593  62.0187 15.27580701 27925
Epoch: 2025-06-30T17:59Z
TLE epoch observation values (Epoch: 2025-06-30T17:59:24.722Z)
Latitude
-0.00005°
Longitude
14.13181°
Altitude
482.595 km
Speed
7.626 km/s
True Right ascension
13h 32m 09s
True Declination
0° 00' 00"
Sunlit
Object was in daylight at epoch
Visualization orbit readout
Latitude
34.39495°
Longitude
57.28116°
Altitude
484.513 km
Speed
7.628 km/s
Apparent Right ascension
13h 20m 08s
Apparent Declination
-1° 51' 14"
Sunlit
Object is in full shadow
Visualization observer readout
Local Sidereal Time
21:33:51
Azimuth
291.497° WNW
Elevation
-26.302°
Doppler factor
1
Orbital elements
Apogee altitude
485.477 km
Perigee altitude
484.509 km
Semi-major axis
6,863.13 km
Eccentricity
0.00007
Inclination
42.996°
RAAN
203.0398°
Arg. of periapsis
298.0593°
True anomaly
Unknown
Mean anomaly
62.0187°
Eccentric anomaly
Unknown
Mean motion
3.81733 °/min
Orbital period
94.31 mins
BSTAR
0.00061431
Loading maneuver chart data...
Loading SW <> Apogee altitude chart data...
Loading historical data...
Loading historical data...
Loading historical data...
Loading historical data...
Loading historical data...
Loading historical data...
Loading historical data...

STARLINK-32777 Visibility forecast

Observer location: undefined°, undefined°

Span
Click to sort rows by Start time (UTC) header in descending order
Start Az.
Max El. time (UTC)
Max El. Az.
Max El.
End time (UTC)
End Az.
7 mins2025-07-01 10:08:29.868Z281.104° WNW2025-07-01 10:11:29.868Z230.741° WSW36.141°2025-07-01 10:15:29.868Z130.927° SE
6 mins2025-07-02 04:44:29.868Z224.999° SW2025-07-02 04:47:29.868Z124.594° SE36.371°2025-07-02 04:50:29.868Z78.168° E
6 mins2025-07-02 06:23:29.868Z275.635° WNW2025-07-02 06:25:29.868Z315.804° NNW38.617°2025-07-02 06:29:29.868Z71.089° E
5 mins2025-07-02 08:03:29.868Z300.172° NW2025-07-02 08:05:29.868Z34.322° NE39.697°2025-07-02 08:08:29.868Z88.517° E
5 mins2025-07-02 09:42:29.868Z267.898° W2025-07-02 09:44:29.868Z183.74° SSW36.9°2025-07-02 09:47:29.868Z130.951° SE
|